| time (UTC) | temp F | wind direction | speed MPH | gust MPH | rain 1hr in | rain 24hr in | rain mn in | humidity % | barometer mb |
| 20260507024102 | 55 | 238 | 6.0 | 13.0 | 0.00 | 0.13 | 0.13 | 94 | 1006.2 |
| 20260507023103 | 55 | 217 | 5.0 | 13.0 | 0.00 | 0.13 | 0.13 | 94 | 1006.3 |
| 20260507022102 | 55 | 209 | 6.0 | 10.0 | 0.00 | 0.13 | 0.13 | 94 | 1006.3 |
| 20260507021124 | 55 | 209 | 7.0 | 12.0 | 0.00 | 0.13 | 0.13 | 94 | 1006.3 |
| 20260507015102 | 55 | 214 | 4.0 | 13.0 | 0.00 | 0.13 | 0.13 | 94 | 1006.5 |
| 20260507014103 | 55 | 199 | 5.0 | 13.0 | 0.00 | 0.13 | 0.13 | 94 | 1006.7 |
| 20260507013103 | 55 | 206 | 7.0 | 12.0 | 0.00 | 0.13 | 0.13 | 94 | 1006.6 |
| 20260507012103 | 55 | 217 | 6.0 | 17.0 | 0.00 | 0.13 | 0.13 | 94 | 1006.8 |
| 20260507011103 | 55 | 207 | 9.0 | 17.0 | 0.00 | 0.13 | 0.13 | 94 | 1006.8 |
| 20260507005123 | 55 | 229 | 7.0 | 14.0 | 0.00 | 0.13 | 0.13 | 94 | 1006.9 |
| 20260507004125 | 55 | 223 | 6.0 | 20.0 | 0.00 | 0.13 | 0.13 | 94 | 1006.9 |
| 20260507003103 | 55 | 220 | 5.0 | 15.0 | 0.00 | 0.13 | 0.13 | 94 | 1006.8 |
| 20260507002102 | 55 | 229 | 9.0 | 15.0 | 0.00 | 0.13 | 0.13 | 94 | 1006.8 |
| 20260507001103 | 55 | 210 | 10.0 | 20.0 | 0.00 | 0.13 | 0.13 | 94 | 1006.8 |
| 20260507000123 | 55 | 211 | 9.0 | 21.0 | 0.00 | 0.13 | 0.13 | 94 | 1006.9 |
| 20260506235102 | 55 | 194 | 9.0 | 19.0 | 0.02 | 0.13 | 0.13 | 94 | 1006.7 |
| 20260506234103 | 55 | 210 | 7.0 | 24.0 | 0.02 | 0.13 | 0.13 | 93 | 1006.8 |
| 20260506233102 | 55 | 212 | 9.0 | 15.0 | 0.02 | 0.13 | 0.13 | 93 | 1006.8 |
| 20260506232103 | 55 | 207 | 10.0 | 17.0 | 0.00 | 0.11 | 0.11 | 93 | 1006.9 |
| 20260506231102 | 55 | 217 | 11.0 | 18.0 | 0.00 | 0.11 | 0.11 | 93 | 1006.8 |
| 20260506230124 | 55 | 217 | 11.0 | 25.0 | 0.00 | 0.11 | 0.11 | 93 | 1006.9 |
| 20260506225103 | 55 | 202 | 13.0 | 21.0 | 0.06 | 0.10 | 0.10 | 93 | 1006.7 |
| 20260506224102 | 55 | 208 | 13.0 | 24.0 | 0.05 | 0.09 | 0.09 | 92 | 1006.7 |
| 20260506222102 | 55 | 209 | 13.0 | 23.0 | 0.02 | 0.06 | 0.06 | 92 | 1006.8 |
| 20260506221103 | 56 | 213 | 10.0 | 24.0 | 0.00 | 0.04 | 0.04 | 92 | 1007.3 |
| 20260506215103 | 56 | 216 | 12.0 | 21.0 | 0.02 | 0.04 | 0.04 | 91 | 1007.3 |
| 20260506214102 | 56 | 203 | 10.0 | 21.0 | 0.02 | 0.04 | 0.04 | 91 | 1007.2 |
| 20260506213124 | 56 | 211 | 13.0 | 21.0 | 0.01 | 0.03 | 0.03 | 91 | 1007.2 |
| 20260506212103 | 56 | 214 | 8.0 | 24.0 | 0.01 | 0.03 | 0.03 | 91 | 1007.4 |
| 20260506211102 | 56 | 201 | 11.0 | 21.0 | 0.01 | 0.03 | 0.03 | 91 | 1007.5 |
| 20260506210124 | 57 | 206 | 11.0 | 26.0 | 0.00 | 0.02 | 0.02 | 90 | 1007.5 |
| 20260506205103 | 57 | 204 | 9.0 | 21.0 | 0.00 | 0.02 | 0.02 | 90 | 1007.6 |
| 20260506204102 | 57 | 207 | 9.0 | 19.0 | 0.00 | 0.02 | 0.02 | 89 | 1007.6 |
| 20260506203124 | 57 | 219 | 12.0 | 22.0 | 0.00 | 0.02 | 0.02 | 89 | 1007.8 |
| 20260506202103 | 57 | 234 | 11.0 | 21.0 | 0.00 | 0.02 | 0.02 | 89 | 1007.8 |
| 20260506201102 | 57 | 212 | 15.0 | 24.0 | 0.00 | 0.02 | 0.02 | 90 | 1007.9 |
| 20260506200124 | 57 | 209 | 9.0 | 22.0 | 0.00 | 0.02 | 0.02 | 89 | 1008.0 |
| 20260506195102 | 58 | 205 | 11.0 | 17.0 | 0.02 | 0.02 | 0.02 | 88 | 1008.2 |
| 20260506194124 | 59 | 206 | 10.0 | 20.0 | 0.00 | 0.00 | 0.00 | 86 | 1008.2 |
| 20260506193103 | 60 | 202 | 13.0 | 25.0 | 0.00 | 0.00 | 0.00 | 84 | 1008.2 |
| 20260506192102 | 60 | 209 | 10.0 | 21.0 | 0.00 | 0.00 | 0.00 | 83 | 1008.2 |
| 20260506191103 | 61 | 202 | 8.0 | 22.0 | 0.00 | 0.00 | 0.00 | 83 | 1008.3 |
| 20260506185103 | 61 | 208 | 11.0 | 20.0 | 0.00 | 0.00 | 0.00 | 83 | 1008.3 |
| 20260506184102 | 61 | 197 | 14.0 | 30.0 | 0.00 | 0.00 | 0.00 | 82 | 1008.4 |
| 20260506183103 | 61 | 202 | 14.0 | 25.0 | 0.00 | 0.00 | 0.00 | 82 | 1008.7 |
| 20260506182103 | 61 | 196 | 13.0 | 24.0 | 0.00 | 0.00 | 0.00 | 81 | 1008.7 |
| 20260506181102 | 61 | 209 | 15.0 | 24.0 | 0.00 | 0.00 | 0.00 | 81 | 1008.7 |
| 20260506175103 | 62 | 200 | 15.0 | 27.0 | 0.00 | 0.00 | 0.00 | 80 | 1009.1 |
| 20260506174102 | 63 | 200 | 14.0 | 30.0 | 0.00 | 0.00 | 0.00 | 79 | 1009.2 |
| 20260506173103 | 63 | 208 | 14.0 | 36.0 | 0.00 | 0.00 | 0.00 | 79 | 1009.5 |
| 20260506172124 | 64 | 194 | 17.0 | 29.0 | 0.00 | 0.00 | 0.00 | 78 | 1009.4 |
| 20260506171102 | 64 | 213 | 17.0 | 30.0 | 0.00 | 0.00 | 0.00 | 78 | 1009.2 |
| 20260506170103 | 64 | 211 | 12.0 | 24.0 | 0.00 | 0.00 | 0.00 | 80 | 1009.5 |
| 20260506165102 | 63 | 215 | 18.0 | 27.0 | 0.00 | 0.00 | 0.00 | 79 | 1009.5 |
| 20260506164103 | 63 | 203 | 13.0 | 32.0 | 0.00 | 0.00 | 0.00 | 79 | 1009.8 |
| 20260506163103 | 63 | 210 | 14.0 | 32.0 | 0.00 | 0.00 | 0.00 | 79 | 1009.9 |
| 20260506162102 | 64 | 194 | 16.0 | 25.0 | 0.00 | 0.00 | 0.00 | 78 | 1009.9 |
| 20260506161103 | 64 | 203 | 18.0 | 31.0 | 0.00 | 0.00 | 0.00 | 78 | 1010.2 |
| 20260506155102 | 64 | 205 | 13.0 | 29.0 | 0.00 | 0.00 | 0.00 | 78 | 1010.3 |
| 20260506154102 | 65 | 203 | 15.0 | 25.0 | 0.00 | 0.00 | 0.00 | 77 | 1010.5 |
| 20260506153124 | 64 | 201 | 12.0 | 29.0 | 0.00 | 0.00 | 0.00 | 78 | 1010.5 |
| 20260506152103 | 64 | 201 | 13.0 | 33.0 | 0.00 | 0.00 | 0.00 | 79 | 1010.5 |
| 20260506151102 | 63 | 203 | 16.0 | 26.0 | 0.00 | 0.00 | 0.00 | 80 | 1010.6 |
| 20260506145102 | 62 | 202 | 14.0 | 25.0 | 0.00 | 0.00 | 0.00 | 80 | 1010.6 |
| 20260506144103 | 63 | 214 | 13.0 | 24.0 | 0.00 | 0.00 | 0.00 | 80 | 1010.5 |
| 20260506143102 | 63 | 213 | 11.0 | 25.0 | 0.00 | 0.00 | 0.00 | 80 | 1010.5 |
| 20260506142102 | 63 | 226 | 14.0 | 28.0 | 0.00 | 0.00 | 0.00 | 79 | 1010.6 |
| 20260506141103 | 63 | 208 | 12.0 | 24.0 | 0.00 | 0.00 | 0.00 | 81 | 1010.2 |
| 20260506135124 | 63 | 205 | 12.0 | 22.0 | 0.00 | 0.00 | 0.00 | 79 | 1010.5 |
| 20260506134102 | 63 | 198 | 14.0 | 20.0 | 0.00 | 0.00 | 0.00 | 79 | 1010.8 |
| 20260506133103 | 63 | 220 | 11.0 | 22.0 | 0.00 | 0.00 | 0.00 | 81 | 1011.0 |
| 20260506132102 | 62 | 209 | 11.0 | 19.0 | 0.00 | 0.00 | 0.00 | 82 | 1010.9 |
| 20260506131104 | 61 | 219 | 12.0 | 27.0 | 0.00 | 0.00 | 0.00 | 83 | 1010.9 |
| 20260506130124 | 61 | 212 | 11.0 | 24.0 | 0.00 | 0.00 | 0.00 | 84 | 1010.9 |
| 20260506125102 | 60 | 203 | 10.0 | 23.0 | 0.00 | 0.00 | 0.00 | 84 | 1010.9 |
| 20260506124102 | 60 | 203 | 11.0 | 31.0 | 0.00 | 0.00 | 0.00 | 85 | 1010.7 |
| 20260506123103 | 60 | 211 | 14.0 | 22.0 | 0.00 | 0.00 | 0.00 | 85 | 1010.8 |
| 20260506122102 | 59 | 199 | 14.0 | 23.0 | 0.00 | 0.00 | 0.00 | 86 | 1010.8 |
| 20260506121103 | 58 | 195 | 11.0 | 22.0 | 0.00 | 0.00 | 0.00 | 87 | 1011.0 |
| 20260506120103 | 58 | 212 | 11.0 | 21.0 | 0.00 | 0.00 | 0.00 | 88 | 1011.1 |
| 20260506115102 | 58 | 193 | 9.0 | 24.0 | 0.00 | 0.00 | 0.00 | 88 | 1011.2 |
| 20260506114103 | 57 | 204 | 9.0 | 17.0 | 0.00 | 0.00 | 0.00 | 89 | 1011.1 |
| 20260506113103 | 57 | 203 | 12.0 | 21.0 | 0.00 | 0.00 | 0.00 | 89 | 1011.3 |
| 20260506112102 | 57 | 198 | 11.0 | 17.0 | 0.00 | 0.00 | 0.00 | 90 | 1011.4 |
| 20260506111103 | 56 | 205 | 10.0 | 22.0 | 0.00 | 0.00 | 0.00 | 90 | 1011.4 |
| 20260506105103 | 56 | 195 | 13.0 | 20.0 | 0.00 | 0.00 | 0.00 | 90 | 1011.1 |
| 20260506104102 | 56 | 189 | 11.0 | 17.0 | 0.00 | 0.00 | 0.00 | 90 | 1011.1 |
| 20260506103103 | 56 | 206 | 9.0 | 17.0 | 0.00 | 0.00 | 0.00 | 91 | 1011.2 |
| 20260506102102 | 56 | 209 | 12.0 | 19.0 | 0.00 | 0.00 | 0.00 | 91 | 1011.1 |
| 20260506101103 | 56 | 212 | 9.0 | 21.0 | 0.00 | 0.00 | 0.00 | 91 | 1010.9 |
| 20260506095125 | 56 | 212 | 11.0 | 19.0 | 0.00 | 0.00 | 0.00 | 91 | 1010.8 |
| 20260506094103 | 55 | 206 | 7.0 | 16.0 | 0.00 | 0.00 | 0.00 | 91 | 1010.8 |
| 20260506093102 | 55 | 214 | 11.0 | 20.0 | 0.00 | 0.00 | 0.00 | 91 | 1010.9 |
| 20260506092104 | 55 | 193 | 10.0 | 19.0 | 0.00 | 0.00 | 0.00 | 91 | 1010.9 |
| 20260506091102 | 55 | 193 | 9.0 | 14.0 | 0.00 | 0.00 | 0.00 | 91 | 1011.0 |
| 20260506085102 | 55 | 197 | 8.0 | 18.0 | 0.00 | 0.00 | 0.00 | 91 | 1011.2 |
| 20260506084124 | 55 | 193 | 8.0 | 13.0 | 0.00 | 0.00 | 0.00 | 91 | 1011.2 |
| 20260506083102 | 55 | 210 | 7.0 | 16.0 | 0.00 | 0.00 | 0.00 | 91 | 1011.3 |
| 20260506082103 | 55 | 209 | 8.0 | 14.0 | 0.00 | 0.00 | 0.00 | 90 | 1011.4 |
| 20260506081102 | 56 | 204 | 8.0 | 14.0 | 0.00 | 0.00 | 0.00 | 90 | 1011.4 |
| 20260506080123 | 56 | 208 | 9.0 | 20.0 | 0.00 | 0.00 | 0.00 | 90 | 1011.3 |
| 20260506073103 | 56 | 203 | 7.0 | 15.0 | 0.00 | 0.00 | 0.00 | 90 | 1011.3 |
| 20260506072102 | 55 | 195 | 7.0 | 17.0 | 0.00 | 0.00 | 0.00 | 90 | 1011.3 |
| 20260506071103 | 56 | 198 | 10.0 | 18.0 | 0.00 | 0.00 | 0.00 | 90 | 1011.2 |
| 20260506070103 | 56 | 195 | 8.0 | 18.0 | 0.00 | 0.00 | 0.00 | 89 | 1011.2 |
| 20260506062103 | 56 | 218 | 10.0 | 19.0 | 0.00 | 0.00 | 0.00 | 88 | 1011.1 |
| 20260506061123 | 56 | 211 | 9.0 | 18.0 | 0.00 | 0.00 | 0.00 | 88 | 1011.1 |
| 20260506051124 | 57 | 212 | 8.0 | 18.0 | 0.00 | 0.00 | 0.00 | 87 | 1011.4 |
| 20260506045103 | 56 | 233 | 7.0 | 18.0 | 0.00 | 0.00 | 0.00 | 87 | 1011.8 |
| 20260506044104 | 56 | 220 | 8.0 | 17.0 | 0.00 | 0.00 | 0.00 | 87 | 1011.8 |
| 20260506043103 | 56 | 208 | 7.0 | 19.0 | 0.00 | 0.00 | 0.00 | 87 | 1011.8 |
| 20260506042102 | 56 | 212 | 7.0 | 18.0 | 0.00 | 0.00 | 0.00 | 87 | 1011.8 |
| 20260506041103 | 56 | 205 | 8.0 | 16.0 | 0.00 | 0.00 | 0.00 | 86 | 1011.6 |
| 20260506035103 | 56 | 198 | 8.0 | 18.0 | 0.00 | 0.00 | 0.00 | 86 | 1011.6 |
| 20260506034103 | 56 | 210 | 8.0 | 21.0 | 0.00 | 0.00 | 0.00 | 85 | 1011.6 |
| 20260506033102 | 56 | 209 | 10.0 | 22.0 | 0.00 | 0.00 | 0.00 | 85 | 1011.6 |
| 20260506032103 | 56 | 216 | 9.0 | 17.0 | 0.00 | 0.00 | 0.00 | 84 | 1011.4 |
| 20260506031103 | 56 | 206 | 10.0 | 20.0 | 0.00 | 0.00 | 0.00 | 83 | 1011.5 |
| 20260506025103 | 56 | 220 | 8.0 | 20.0 | 0.00 | 0.00 | 0.00 | 82 | 1011.4 |